This is the latest recevied weather packets stored in our database for station/object KC3JUG-3. If no packets are shown the sender has not sent any weather packets the latest 10 day(s).
| Time | Temp. | Humidity | Pressure | Rain* | Wind** | Luminosity | Snow |
|---|---|---|---|---|---|---|---|
| 1777497047 | 12.78° C | 79% | 1011.4 hPa | 0 mm | - | - | - |
| 1777495850 | 13.33° C | 74% | 1011.3 hPa | 0 mm | - | - | - |
| 1777495247 | 13.33° C | 73% | 1011.2 hPa | 0 mm | - | - | - |
| 1777490494 | 14.44° C | 69% | 1012.4 hPa | 0 mm | - | - | - |
| 1777487746 | 13.89° C | 69% | 1013.6 hPa | 0 mm | - | - | - |
| 1777486247 | 13.33° C | 70% | 1013.6 hPa | 0 mm | - | - | - |
| 1777485949 | 13.33° C | 72% | 1013.9 hPa | 0 mm | - | - | - |
| 1777484764 | 13.33° C | 69% | 1014.4 hPa | 0 mm | - | - | - |
| 1777482348 | 13.33° C | 63% | 1014.9 hPa | 0 mm | - | - | - |
| 1777476948 | 13.89° C | 65% | 1015.4 hPa | 0 mm | - | - | - |
| 1777475449 | 13.89° C | 66% | 1015.8 hPa | 0 mm | - | - | - |
| 1777474849 | 13.33° C | 66% | 1015.8 hPa | 0 mm | - | - | - |
| 1777473648 | 13.89° C | 65% | 1016 hPa | 0 mm | - | - | - |
| 1777473352 | 13.33° C | 67% | 1016 hPa | 0 mm | - | - | - |
| 1777472152 | 12.78° C | 68% | 1016.2 hPa | 0 mm | - | - | - |
| 1777468550 | 11.67° C | 68% | 1016.3 hPa | 0 mm | - | - | - |
| 1777467046 | 11.11° C | 68% | 1016.5 hPa | 0 mm | - | - | - |
| 1777466145 | 11.11° C | 68% | 1016.6 hPa | 0 mm | - | - | - |
| 1777465546 | 11.11° C | 69% | 1016.2 hPa | 0 mm | - | - | - |
| 1777464645 | 10.56° C | 71% | 1016.6 hPa | 0 mm | - | - | - |
| 1777464345 | 10.56° C | 71% | 1016.6 hPa | 0 mm | - | - | - |
| 1777463745 | 10.56° C | 72% | 1016.5 hPa | 0 mm | - | - | - |
| 1777463447 | 10° C | 71% | 1016.4 hPa | 0 mm | - | - | - |
| 1777463156 | 10° C | 71% | 1016.4 hPa | 0 mm | - | - | - |
| 1777462845 | 10° C | 72% | 1016.5 hPa | 0 mm | - | - | - |
* Rain latest hour (hover to see other rain measurements)
** Current wind speed in m/s (hover to see current wind gust speed)